Tracking 27126 objects as of 30-Mar-2023
HD Live streaming from Space Station
objects crossing your sky now

GLOBALSTAR M094

Track GLOBALSTAR M094 now!
10-day predictions
GLOBALSTAR M094 is classified as:


NORAD ID: 39074
Int'l Code: 2013-005C
Perigee: 1,420.6 km
Apogee: 1,420.9 km
Inclination: 52.0 °
Period: 114.1 minutes
Semi major axis: 7791 km
RCS: 3.814 m2 (large)
Launch date: February 6, 2013
Source: Globalstar (GLOB)
Launch site: TYURATAM MISSILE AND SPACE COMPLEX (TTMTR)

GLOBALSTAR M094 is part of Globalstar's second-generation satellite fleet, which began launching in 2010.
Your satellite tracking list
Your tracking list is empty




NASA's NSSDC Master Catalog

Two Line Element Set (TLE):
1 39074U 13005C   23088.80770308 -.00000098  00000-0  34107-4 0  9993
2 39074  51.9941 129.4862 0000226  96.4692 263.6200 12.62269422470031
Source of the keplerian elements: AFSPC